1486544400.31,58336,10.69,73092.3,-2.11,-32.13,-32.69,0,*54
1486544401.58,58337,10.69,73094.3,-2.11,-32.39,-32.79,0,*5C
1486544402.78,58338,10.69,73092.8,-2.09,-32.57,-33.21,0,*5E
1486544404.02,58339,10.69,73088.5,-2.09,-32.85,-33.37,0,*57
1486544405.3,58340,10.69,73092.8,-2.11,-32.85,-33.31,0,*56
1486544406.56,58341,10.69,73094.5,-2.11,-32.39,-32.97,0,*5D
1486544407.79,58342,10.69,73090.3,-2.11,-32.69,-33.21,0,*57
1486544409.0,58343,10.69,73088.0,-2.09,-32.69,-33.21,0,*5F
1486544410.22,58344,10.69,73092.3,-2.09,-32.69,-33.21,0,*58
1486544411.47,58345,10.75,73094.0,-2.09,-32.85,-33.49,0,*55
1486544412.73,58346,10.69,73096.3,-2.09,-32.79,-33.31,0,*5A
1486544413.98,58347,10.69,73092.0,-2.09,-32.45,-32.97,0,*59
1486544415.22,58348,10.69,73090.5,-2.09,-32.85,-33.37,0,*51
1486544416.48,58349,10.69,73092.3,-2.09,-32.79,-33.31,0,*55
1486544417.69,58350,10.69,73088.0,-2.09,-32.69,-33.21,0,*5D
1486544418.93,58351,10.69,73090.5,-2.07,-32.39,-32.91,0,*5D
1486544420.19,58352,10.75,73094.5,-2.07,-32.75,-33.15,0,*5B
1486544421.42,58353,10.75,73092.3,-2.09,-33.21,-33.77,0,*50
1486544422.69,58354,10.69,73092.5,-2.07,-32.07,-32.51,0,*59
1486544423.95,58355,10.69,73092.0,-2.05,-32.19,-32.63,0,*54
1486544425.21,58356,10.69,73088.3,-2.07,-32.19,-32.51,0,*54
1486544426.46,58357,10.69,73092.3,-2.05,-32.07,-32.51,0,*58
1486544427.69,58358,10.69,73090.3,-2.05,-32.57,-32.97,0,*58
1486544428.92,58359,10.75,73092.8,-2.05,-32.39,-32.79,0,*51
1486544430.14,58360,10.69,73088.8,-2.05,-32.39,-32.91,0,*5D
1486544431.34,58361,10.69,73094.0,-2.01,-32.57,-33.21,0,*5A
1486544432.55,58362,10.69,73092.0,-2.01,-32.01,-32.69,0,*57
1486544433.82,58363,10.75,73094.8,-2.01,-31.85,-32.19,0,*5E
1486544435.04,58364,10.75,73096.5,-1.99,-31.67,-32.13,0,*5D
1486544436.3,58365,10.69,73088.8,-1.99,-32.13,-32.75,0,*5C
1486544437.59,58366,10.75,73094.5,-1.99,-32.19,-32.85,0,*5A
1486544438.85,58367,10.69,73092.5,-1.95,-32.13,-32.63,0,*55
1486544440.11,58368,10.75,73094.3,-1.95,-32.07,-32.51,0,*5E
1486544441.34,58369,10.75,73092.5,-1.97,-32.23,-32.85,0,*52
1486544442.56,58370,10.75,73092.3,-1.97,-32.39,-32.97,0,*52
1486544443.82,58371,10.75,73094.0,-1.95,-32.39,-32.97,0,*51
1486544445.02,58372,10.75,73094.8,-1.97,-32.23,-32.69,0,*5A
1486544446.3,58373,10.75,73092.3,-1.95,-32.29,-32.79,0,*52
1486544447.53,58374,10.75,73092.8,-1.93,-32.39,-32.97,0,*52
1486544448.79,58375,10.69,73094.5,-1.93,-31.73,-32.07,0,*57
1486544450.08,58376,10.75,73098.0,-1.91,-31.85,-32.19,0,*50
1486544451.31,58377,10.69,73090.0,-1.93,-31.67,-32.07,0,*50
1486544452.59,58378,10.75,73094.0,-1.91,-31.39,-31.91,0,*5A
1486544453.85,58379,10.75,73096.0,-1.91,-31.85,-32.35,0,*51
1486544455.08,58380,10.75,73094.5,-1.87,-31.79,-32.23,0,*54
1486544456.35,58381,10.75,73094.5,-1.87,-31.11,-31.57,0,*5B
1486544457.6,58382,10.75,73098.0,-1.87,-31.39,-31.79,0,*5E
1486544458.83,58383,10.75,73092.0,-1.87,-31.29,-31.79,0,*5E
1486544460.09,58384,10.75,73094.0,-1.85,-31.61,-32.07,0,*5D
1486544461.35,58385,10.75,73096.0,-1.85,-31.61,-31.95,0,*54
1486544462.61,58386,10.75,73094.3,-1.83,-31.67,-32.07,0,*5F
1486544463.87,58387,10.69,73094.8,-1.83,-31.67,-32.07,0,*5E
1486544465.16,58388,10.75,73094.8,-1.83,-31.73,-32.19,0,*5B
1486544466.4,58389,10.75,73096.5,-1.81,-32.01,-32.29,0,*5D
1486544467.65,58390,10.69,73094.3,-1.81,-31.85,-32.29,0,*5A
1486544468.91,58391,10.75,73096.8,-1.77,-31.79,-32.29,0,*51
1486544470.2,58392,10.75,73092.0,-1.77,-32.07,-32.63,0,*56
1486544471.44,58393,10.75,73094.5,-1.77,-32.13,-32.69,0,*58
1486544472.7,58394,10.75,73092.3,-1.75,-32.29,-32.79,0,*55
1486544473.99,58395,10.69,73092.3,-1.77,-32.45,-32.97,0,*5C
1486544475.28,58396,10.75,73098.8,-1.77,-32.45,-32.79,0,*5F
1486544476.57,58397,10.75,73092.8,-1.77,-31.95,-32.45,0,*5F
1486544477.83,58398,10.75,73092.5,-1.75,-31.73,-32.19,0,*53
1486544479.07,58399,10.75,73094.8,-1.75,-31.45,-31.91,0,*54
1486544480.33,58400,10.75,73094.8,-1.73,-31.57,-32.01,0,*5C
1486544481.61,58401,10.75,73096.8,-1.73,-31.51,-31.91,0,*51
1486544482.85,58402,10.75,73096.5,-1.71,-31.91,-32.39,0,*5D
1486544484.11,58403,10.75,73094.8,-1.71,-32.29,-32.79,0,*58
1486544485.34,58404,10.75,73094.3,-1.69,-32.51,-33.03,0,*55
1486544486.6,58405,10.75,73096.5,-1.71,-32.45,-33.09,0,*52
1486544487.87,58406,10.75,73094.0,-1.71,-32.45,-33.09,0,*51
1486544489.1,58407,10.75,73096.8,-1.71,-32.39,-32.97,0,*5D
1486544490.33,58408,10.75,73098.0,-1.71,-32.97,-33.37,0,*5D
1486544491.57,58409,10.75,73098.0,-1.69,-32.39,-33.03,0,*56
1486544492.81,58410,10.75,73096.0,-1.71,-31.91,-32.39,0,*5E
1486544494.04,58411,10.75,73098.3,-1.71,-31.67,-32.19,0,*54
1486544495.31,58412,10.75,73096.3,-1.69,-31.85,-32.23,0,*5B
1486544496.54,58413,10.75,73096.3,-1.67,-32.19,-32.57,0,*51
1486544497.81,58414,10.75,73094.8,-1.67,-32.19,-32.75,0,*56
1486544499.01,58415,10.75,73098.8,-1.67,-32.23,-32.91,0,*54
1486544500.25,58416,10.75,73096.8,-1.67,-32.19,-32.69,0,*59
1486544501.47,58417,10.75,73096.3,-1.67,-32.39,-32.91,0,*5D
1486544502.68,58418,10.75,73096.5,-1.67,-32.57,-33.15,0,*57
1486544503.89,58419,10.75,73096.0,-1.67,-32.39,-32.91,0,*53
1486544505.1,58420,10.75,73094.0,-1.67,-32.35,-32.91,0,*55
1486544506.33,58421,10.75,73096.8,-1.65,-32.51,-33.03,0,*5E
1486544507.57,58422,10.75,73098.5,-1.67,-32.75,-33.15,0,*5E
1486544508.86,58423,10.75,73096.0,-1.65,-32.19,-32.75,0,*50
1486544510.11,58424,10.75,73096.5,-1.65,-32.35,-32.97,0,*55
1486544511.39,58425,10.75,73098.5,-1.65,-32.45,-32.97,0,*53
1486544512.65,58426,10.75,73096.0,-1.65,-31.91,-32.35,0,*52
1486544513.93,58427,10.75,73098.0,-1.65,-32.19,-32.63,0,*53
1486544515.2,58428,10.75,73094.5,-1.61,-31.73,-32.39,0,*58
1486544516.44,58429,10.75,73098.8,-1.63,-31.91,-32.39,0,*57
1486544517.68,58430,10.75,73094.5,-1.63,-32.13,-32.75,0,*5E
1486544518.94,58431,10.75,73098.5,-1.61,-31.33,-31.73,0,*59
1486544520.2,58432,10.75,73098.3,-1.61,-32.13,-32.79,0,*52
1486544521.44,58433,10.75,73098.0,-1.61,-32.91,-33.37,0,*52
1486544522.72,58434,10.75,73096.5,-1.61,-32.29,-32.79,0,*5D
1486544523.96,58435,10.75,73098.5,-1.59,-32.35,-32.85,0,*59
1486544525.25,58436,10.75,73100.0,-1.61,-32.63,-33.31,0,*5C
1486544526.51,58437,10.75,73100.3,-1.61,-32.97,-33.55,0,*54
1486544527.79,58438,10.75,73096.3,-1.61,-32.97,-33.49,0,*56
1486544529.08,58439,10.75,73098.3,-1.61,-32.79,-33.31,0,*58
1486544530.32,58440,10.75,73098.0,-1.61,-32.39,-33.03,0,*53
1486544531.56,58441,10.75,73098.5,-1.55,-32.57,-33.09,0,*57
1486544532.83,58442,10.75,73096.8,-1.59,-32.75,-33.43,0,*56
1486544534.06,58443,10.75,73096.5,-1.59,-32.51,-32.97,0,*59
1486544535.28,58444,10.75,73096.3,-1.59,-32.23,-32.69,0,*5A
1486544536.52,58445,10.75,73096.8,-1.59,-32.23,-32.75,0,*56
1486544537.79,58446,10.75,73100.0,-1.59,-32.19,-32.75,0,*5C
1486544539.02,58447,10.75,73094.0,-1.59,-32.35,-32.85,0,*5C
1486544540.26,58448,10.75,73098.5,-1.59,-32.07,-32.57,0,*5D
1486544541.5,58449,10.75,73098.3,-1.59,-32.07,-32.57,0,*5C
1486544542.71,58450,10.75,73096.5,-1.55,-32.23,-32.69,0,*53
1486544543.94,58451,10.75,73098.0,-1.55,-32.19,-32.57,0,*56
1486544545.18,58452,10.75,73100.0,-1.51,-32.19,-32.51,0,*57
1486544546.41,58453,10.75,73100.5,-1.51,-31.85,-32.35,0,*52
1486544547.68,58454,10.75,73098.0,-1.53,-31.45,-31.95,0,*52
1486544548.91,58455,10.75,73102.3,-1.51,-31.29,-31.73,0,*53
1486544550.14,58456,10.75,73096.5,-1.49,-31.33,-31.79,0,*58
1486544551.4,58457,10.75,73100.8,-1.47,-31.73,-32.39,0,*54
1486544552.67,58458,10.75,73098.0,-1.47,-32.39,-32.79,0,*52
1486544553.93,58459,10.75,73100.8,-1.47,-31.73,-32.13,0,*52
1486544555.19,58460,10.75,73102.0,-1.47,-32.13,-32.63,0,*5A
1486544556.48,58461,10.75,73102.3,-1.47,-32.45,-32.85,0,*50
1486544557.71,58462,10.75,73102.0,-1.47,-32.13,-32.57,0,*5F
1486544558.97,58463,10.75,73100.5,-1.47,-32.23,-32.79,0,*51
1486544560.26,58464,10.75,73102.3,-1.47,-32.07,-32.75,0,*5C
1486544561.52,58465,10.75,73098.0,-1.47,-32.13,-32.63,0,*5F
1486544562.78,58466,10.75,73096.8,-1.43,-32.13,-32.45,0,*5C
1486544564.04,58467,10.75,73100.0,-1.43,-32.13,-32.63,0,*59
1486544565.33,58468,10.75,73100.3,-1.43,-31.85,-32.19,0,*57
1486544566.6,58469,10.75,73102.3,-1.43,-31.79,-32.45,0,*5C
1486544567.83,58470,10.75,73102.3,-1.41,-31.61,-32.13,0,*5C
1486544569.03,58471,10.75,73100.0,-1.41,-31.67,-32.13,0,*5B
1486544570.32,58472,10.75,73100.8,-1.39,-31.61,-32.07,0,*54
1486544571.55,58473,10.75,73100.3,-1.39,-31.79,-32.23,0,*5A
1486544572.8,58474,10.75,73102.3,-1.39,-31.17,-31.73,0,*53
1486544574.06,58475,10.81,73104.8,-1.39,-31.05,-31.39,0,*5F
1486544575.32,58476,10.75,73100.0,-1.35,-30.95,-31.29,0,*59
1486544576.57,58477,10.75,73102.3,-1.31,-31.33,-31.73,0,*5E
1486544577.85,58478,10.81,73104.5,-1.31,-31.73,-32.19,0,*5A
1486544579.08,58479,10.75,73102.8,-1.31,-31.01,-31.33,0,*55
1486544580.33,58480,10.75,73098.5,-1.27,-31.05,-31.51,0,*54
1486544581.56,58481,10.75,73104.5,-1.29,-32.35,-32.85,0,*51
1486544582.79,58482,10.75,73100.8,-1.29,-31.67,-32.19,0,*53
1486544584.05,58483,10.75,73098.5,-1.29,-31.61,-32.19,0,*54
1486544585.29,58484,10.75,73098.5,-1.29,-31.79,-32.19,0,*5A
1486544586.55,58485,10.75,73098.3,-1.27,-31.61,-32.01,0,*55
1486544587.8,58486,10.75,73100.0,-1.27,-31.51,-32.01,0,*55
1486544589.06,58487,10.75,73100.8,-1.25,-31.61,-32.07,0,*53
1486544590.29,58488,10.75,73102.5,-1.21,-31.61,-32.01,0,*5E
1486544591.57,58489,10.75,73100.5,-1.23,-31.39,-31.91,0,*5A
1486544592.8,58490,10.75,73100.5,-1.25,-31.45,-31.91,0,*5F
1486544594.03,58491,10.75,73102.0,-1.23,-31.79,-32.23,0,*5D
1486544595.32,58492,10.75,73100.5,-1.23,-31.95,-32.63,0,*58
1486544596.55,58493,10.75,73096.3,-1.21,-32.57,-33.09,0,*5B
1486544597.78,58494,10.75,73098.3,-1.21,-32.35,-32.75,0,*52
1486544599.02,58495,10.75,73102.8,-1.23,-32.69,-33.21,0,*58
1486544600.29,58496,10.75,73100.8,-1.23,-32.29,-32.63,0,*58
1486544601.55,58497,10.75,73100.3,-1.23,-32.39,-32.85,0,*50
1486544602.76,58498,10.75,73102.5,-1.21,-32.39,-32.91,0,*58
1486544603.97,58499,10.81,73104.0,-1.21,-32.39,-32.91,0,*59
1486544605.2,58500,10.75,73102.5,-1.21,-32.39,-32.79,0,*5E
1486544606.45,58501,10.81,73100.5,-1.21,-32.45,-33.09,0,*52
1486544607.69,58502,10.81,73102.8,-1.21,-32.57,-33.09,0,*52
1486544608.91,58503,10.81,73100.5,-1.21,-32.07,-32.57,0,*5C
1486544610.12,58504,10.75,73100.0,-1.21,-32.23,-32.91,0,*57
1486544611.32,58505,10.75,73102.3,-1.21,-32.57,-33.15,0,*58
1486544612.56,58506,10.75,73098.8,-1.21,-32.01,-32.45,0,*5C
1486544613.76,58507,10.75,73102.3,-1.21,-32.57,-33.15,0,*5A
1486544615.02,58508,10.81,73102.3,-1.19,-32.29,-32.69,0,*5D
1486544616.24,58509,10.81,73104.0,-1.19,-32.35,-32.69,0,*51
1486544617.5,58510,10.81,73102.8,-1.19,-31.79,-32.19,0,*55
1486544618.76,58511,10.75,73100.8,-1.19,-31.61,-32.13,0,*57
1486544620.04,58512,10.75,73100.8,-1.19,-31.51,-31.95,0,*5A
1486544621.29,58513,10.75,73102.8,-1.17,-31.51,-31.85,0,*54
1486544622.52,58514,10.81,73104.0,-1.15,-31.61,-32.23,0,*5D
1486544623.74,58515,10.81,73104.3,-1.15,-31.45,-31.79,0,*56
1486544624.98,58516,10.81,73100.3,-1.15,-30.89,-31.29,0,*51
1486544626.21,58517,10.75,73102.0,-1.15,-32.23,-32.63,0,*5F
1486544627.45,58518,10.81,73102.3,-1.15,-31.61,-32.13,0,*52
1486544628.72,58519,10.81,73100.5,-1.13,-32.07,-32.51,0,*50
1486544629.96,58520,10.81,73104.0,-1.13,-32.35,-32.69,0,*50
1486544631.22,58521,10.81,73102.3,-1.13,-32.29,-32.69,0,*5C
1486544632.48,58522,10.81,73102.5,-1.13,-31.95,-32.35,0,*52
1486544633.77,58523,10.81,73104.0,-1.13,-32.19,-32.75,0,*50
1486544635.01,58524,10.81,73100.3,-1.11,-31.91,-32.39,0,*5E
1486544636.24,58525,10.81,73102.8,-1.13,-31.79,-32.35,0,*57
1486544637.48,58526,10.81,73100.0,-1.11,-32.39,-32.79,0,*59
1486544638.72,58527,10.81,73100.0,-1.11,-32.45,-32.91,0,*55
1486544639.98,58528,10.81,73104.3,-1.11,-31.85,-32.29,0,*56
1486544641.24,58529,10.81,73100.3,-1.11,-32.29,-32.75,0,*5B
1486544642.5,58530,10.81,73104.8,-1.11,-32.07,-32.45,0,*5C
1486544643.72,58531,10.81,73102.8,-1.07,-32.01,-32.39,0,*57
1486544644.98,58532,10.81,73098.8,-1.07,-32.45,-32.79,0,*50
1486544646.22,58533,10.81,73100.3,-1.07,-32.39,-32.79,0,*5A
1486544647.46,58534,10.81,73100.0,-1.07,-32.39,-32.85,0,*5E
1486544648.7,58535,10.81,73100.3,-1.07,-32.39,-32.79,0,*5C
1486544649.93,58536,10.81,73102.5,-1.05,-31.67,-32.13,0,*59
1486544651.17,58537,10.81,73102.0,-1.07,-32.01,-32.45,0,*5A
1486544652.43,58538,10.81,73102.0,-1.07,-31.91,-32.29,0,*55
1486544653.66,58539,10.81,73098.3,-1.05,-32.13,-32.57,0,*56
1486544654.89,58540,10.75,73098.5,-1.05,-32.51,-33.03,0,*5E
1486544656.15,58541,10.81,73100.3,-1.05,-32.69,-33.09,0,*5E
1486544657.39,58542,10.81,73102.5,-1.05,-32.51,-32.91,0,*56
1486544658.65,58543,10.81,73100.8,-1.05,-32.19,-32.51,0,*57
1486544659.91,58544,10.75,73098.5,-1.05,-32.57,-33.09,0,*56
1486544661.12,58545,10.81,73096.8,-1.03,-32.35,-32.69,0,*52
1486544662.35,58546,10.81,73098.8,-1.03,-32.57,-33.09,0,*52
1486544663.59,58547,10.81,73098.8,-1.03,-32.35,-32.85,0,*52
1486544664.8,58548,10.81,73100.3,-1.03,-32.39,-32.91,0,*54
1486544666.08,58549,10.81,73100.3,-1.01,-32.29,-32.79,0,*50
1486544667.29,58550,10.81,73102.3,-1.03,-32.57,-32.91,0,*55
1486544668.52,58551,10.81,73100.5,-1.03,-32.23,-32.85,0,*52
1486544669.76,58552,10.81,73096.8,-1.03,-32.13,-32.45,0,*5E
1486544670.97,58553,10.81,73100.5,-1.03,-31.79,-32.23,0,*50
1486544672.2,58554,10.81,73096.3,-1.03,-31.85,-32.35,0,*53
1486544673.47,58555,10.81,73100.8,-1.01,-32.19,-32.69,0,*5F
1486544674.73,58556,10.81,73098.5,-1.01,-32.35,-32.79,0,*53
1486544675.99,58557,10.81,73102.5,-1.03,-32.85,-33.31,0,*56
1486544677.25,58558,10.81,73102.3,-1.01,-32.69,-32.97,0,*54
1486544678.51,58559,10.81,73096.5,-1.01,-31.91,-32.35,0,*59
1486544679.77,58560,10.81,73100.0,-1.01,-32.19,-32.69,0,*59
1486544681.02,58561,10.81,73102.0,-0.99,-32.29,-32.63,0,*61
1486544682.25,58562,10.81,73098.0,-0.99,-31.91,-32.35,0,*61
1486544683.45,58563,10.81,73100.0,-0.99,-32.51,-33.03,0,*6B
1486544684.68,58564,10.81,73102.3,-0.99,-32.23,-32.63,0,*6E
1486544685.9,58565,10.81,73100.3,-0.97,-32.39,-32.91,0,*67
1486544687.19,58566,10.81,73102.5,-0.97,-31.57,-32.07,0,*60
1486544688.46,58567,10.81,73100.8,-0.97,-31.85,-32.29,0,*62
1486544689.71,58568,10.81,73100.5,-0.97,-32.13,-32.63,0,*6F
1486544690.94,58569,10.81,73100.8,-0.95,-31.95,-32.35,0,*62
1486544692.18,58570,10.81,73102.5,-0.95,-31.95,-32.39,0,*66
1486544693.39,58571,10.81,73102.5,-0.95,-32.69,-33.15,0,*68
1486544694.61,58572,10.81,73102.0,-0.95,-32.35,-32.85,0,*6A
1486544695.81,58573,10.81,73100.0,-0.95,-32.01,-32.57,0,*63
1486544697.04,58574,10.81,73102.3,-0.95,-31.85,-32.35,0,*6F
1486544698.33,58575,10.81,73102.3,-0.93,-31.61,-32.07,0,*63
1486544699.58,58576,10.81,73102.3,-0.93,-31.85,-32.35,0,*6B
1486544700.83,58577,10.81,73102.8,-0.93,-31.95,-32.35,0,*6B
1486544702.08,58578,10.81,73102.5,-0.93,-31.67,-32.19,0,*67
1486544703.34,58579,10.81,73100.8,-0.91,-31.91,-32.19,0,*6D
1486544704.57,58580,10.81,73100.0,-0.91,-32.01,-32.45,0,*68
1486544705.82,58581,10.81,73100.3,-0.91,-31.91,-32.29,0,*69
1486544707.07,58582,10.81,73102.8,-0.89,-31.61,-32.01,0,*66
1486544708.3,58583,10.81,73100.8,-0.89,-32.13,-32.69,0,*6F
1486544709.54,58584,10.81,73104.0,-0.89,-32.35,-32.85,0,*6E
1486544710.79,58585,10.81,73102.5,-0.89,-32.29,-32.69,0,*60
1486544712.07,58586,10.81,73100.5,-0.89,-32.45,-32.85,0,*6B
1486544713.32,58587,10.81,73100.8,-0.91,-31.91,-32.45,0,*65
1486544714.57,58588,10.81,73102.3,-0.89,-32.19,-32.69,0,*6E
1486544715.83,58589,10.81,73106.3,-0.89,-31.95,-32.51,0,*63
1486544717.08,58590,10.81,73098.3,-0.89,-32.63,-33.03,0,*67
1486544718.35,58591,10.81,73102.3,-0.89,-32.45,-32.97,0,*6E
1486544719.61,58592,10.81,73100.5,-0.89,-32.29,-32.63,0,*6C
1486544720.89,58593,10.81,73102.8,-0.89,-31.57,-31.95,0,*6D
1486544722.14,58594,10.81,73102.0,-0.85,-31.33,-31.91,0,*60
1486544723.41,58595,10.81,73106.0,-0.83,-31.11,-31.45,0,*6E
1486544724.61,58596,10.81,73100.8,-0.81,-31.01,-31.45,0,*6E
1486544725.84,58597,10.81,73100.5,-0.81,-31.17,-31.61,0,*6E
1486544727.13,58598,10.81,73102.3,-0.79,-31.57,-31.95,0,*69
1486544728.38,58599,10.81,73106.5,-0.79,-31.61,-32.01,0,*63
1486544729.61,58600,10.81,73102.5,-0.81,-32.35,-32.85,0,*69
1486544730.86,58601,10.81,73100.3,-0.79,-32.29,-32.69,0,*60
1486544732.12,58602,10.81,73100.3,-0.81,-31.73,-32.19,0,*6F
1486544733.35,58603,10.81,73104.5,-0.77,-31.79,-32.29,0,*6E
1486544734.63,58604,10.81,73104.0,-0.79,-31.39,-31.95,0,*67
1486544735.86,58605,10.81,73100.3,-0.77,-31.79,-32.19,0,*6B
1486544737.11,58606,10.81,73104.5,-0.77,-32.85,-33.43,0,*66
1486544738.34,58607,10.81,73104.8,-0.77,-32.91,-33.43,0,*62
1486544739.54,58608,10.81,73102.0,-0.77,-32.91,-33.55,0,*6A
1486544740.79,58609,10.81,73102.3,-0.79,-32.85,-33.21,0,*63
1486544742.04,58610,10.81,73104.3,-0.81,-32.97,-33.61,0,*6B
1486544743.26,58611,10.81,73104.3,-0.81,-33.15,-33.77,0,*66
1486544744.52,58612,10.81,73100.5,-0.81,-33.27,-34.01,0,*62
1486544745.79,58613,10.81,73102.0,-0.79,-33.89,-34.31,0,*63
1486544747.01,58614,10.81,73096.8,-0.81,-33.27,-33.83,0,*69
1486544748.26,58615,10.81,73100.5,-0.81,-32.97,-33.49,0,*64
1486544749.52,58616,10.81,73106.0,-0.81,-33.27,-33.77,0,*60
1486544750.79,58617,10.81,73106.0,-0.83,-33.49,-34.19,0,*64
1486544752.07,58618,10.81,73100.8,-0.85,-33.49,-34.01,0,*64
1486544753.32,58619,10.81,73102.5,-0.85,-33.37,-33.89,0,*6B
1486544754.59,58620,10.81,73100.3,-0.85,-33.89,-34.31,0,*60
1486544755.83,58621,10.81,73102.5,-0.85,-33.67,-34.19,0,*6B
1486544757.07,58622,10.81,73104.8,-0.89,-33.43,-34.07,0,*6D
1486544758.29,58623,10.81,73104.5,-0.89,-33.55,-34.07,0,*6B
1486544759.49,58624,10.81,73104.5,-0.91,-33.37,-33.95,0,*6D
1486544760.75,58625,10.81,73102.8,-0.91,-33.27,-33.89,0,*60
1486544761.97,58626,10.81,73100.8,-0.91,-33.61,-34.13,0,*65
1486544763.21,58627,10.81,73102.0,-0.91,-33.77,-34.31,0,*63
1486544764.43,58628,10.81,73100.5,-0.93,-33.83,-34.41,0,*62
1486544765.64,58629,10.81,73104.0,-0.95,-34.13,-34.77,0,*6E
1486544766.87,58630,10.88,73106.3,-0.95,-34.31,-34.89,0,*67
1486544768.1,58631,10.81,73104.3,-0.95,-34.01,-34.71,0,*62
1486544769.33,58632,10.81,73102.8,-0.97,-33.83,-34.59,0,*64
1486544770.58,58633,10.81,73104.5,-0.97,-34.19,-34.77,0,*6D
1486544771.79,58634,10.81,73104.5,-0.99,-34.13,-34.71,0,*68
1486544773.01,58635,10.88,73104.3,-0.99,-33.95,-34.53,0,*60
1486544774.26,58636,10.81,73104.0,-0.97,-33.73,-34.25,0,*64
1486544775.49,58637,10.81,73102.3,-0.99,-33.95,-34.65,0,*67
1486544776.73,58638,10.88,73104.0,-0.99,-34.13,-34.65,0,*61
1486544777.97,58639,10.81,73104.0,-1.01,-33.95,-34.47,0,*59
1486544779.22,58640,10.88,73104.5,-1.03,-33.77,-34.31,0,*58
1486544780.47,58641,10.88,73100.3,-1.01,-33.61,-34.13,0,*5C
1486544781.71,58642,10.88,73100.8,-1.03,-34.35,-34.77,0,*59
1486544782.94,58643,10.88,73104.8,-1.03,-33.27,-33.83,0,*50
1486544784.2,58644,10.81,73100.8,-1.03,-33.27,-33.77,0,*5C
1486544785.45,58645,10.81,73100.0,-1.03,-32.85,-33.61,0,*53
1486544786.68,58646,10.81,73100.0,-1.03,-33.27,-33.95,0,*52
1486544787.91,58647,10.81,73100.0,-1.03,-33.31,-33.95,0,*54
1486544789.15,58648,10.88,73104.8,-1.03,-32.57,-33.09,0,*5F
1486544790.38,58649,10.88,73106.5,-1.03,-32.19,-32.57,0,*5E
1486544791.59,58650,10.81,73104.3,-1.03,-32.51,-33.21,0,*5A
1486544792.85,58651,10.81,73104.0,-1.03,-32.75,-33.27,0,*5B
1486544794.11,58652,10.88,73106.8,-1.01,-32.13,-32.63,0,*5B
1486544795.37,58653,10.81,73102.3,-1.01,-31.79,-32.19,0,*58
1486544796.66,58654,10.81,73102.3,-1.01,-31.73,-32.29,0,*56
1486544797.91,58655,10.88,73104.8,-0.97,-32.39,-32.97,0,*61
1486544799.14,58656,10.88,73104.5,-0.99,-33.37,-33.89,0,*6D
1486544800.41,58657,10.81,73102.3,-0.97,-33.31,-33.73,0,*61
1486544801.67,58658,10.88,73106.5,-0.99,-32.85,-33.27,0,*6F
1486544802.92,58659,10.88,73104.8,-0.99,-32.45,-32.97,0,*68
1486544804.21,58660,10.81,73104.3,-0.97,-32.75,-33.43,0,*67
1486544805.43,58661,10.88,73104.0,-0.99,-33.21,-33.61,0,*68
1486544806.66,58662,10.81,73100.5,-0.97,-33.21,-33.83,0,*69
1486544807.91,58663,10.81,73104.3,-0.99,-32.97,-33.43,0,*66
1486544809.14,58664,10.88,73102.8,-0.99,-33.21,-33.77,0,*6A
1486544810.34,58665,10.81,73100.8,-0.99,-33.03,-33.55,0,*6B
1486544811.6,58666,10.88,73106.0,-0.99,-32.85,-33.27,0,*62
1486544812.8,58667,10.88,73106.0,-0.99,-32.51,-33.03,0,*6C
1486544814.05,58668,10.88,73102.5,-0.97,-32.39,-32.97,0,*6F
1486544815.3,58669,10.88,73104.0,-0.97,-33.09,-33.67,0,*62
1486544816.53,58670,10.81,73100.8,-0.99,-33.21,-33.73,0,*6B
1486544817.79,58671,10.81,73102.5,-0.97,-33.09,-33.67,0,*6B
1486544819.04,58672,10.88,73106.3,-0.97,-33.37,-34.01,0,*62
1486544820.27,58673,10.81,73100.5,-0.99,-33.43,-33.95,0,*64
1486544821.5,58674,10.88,73104.0,-0.99,-33.21,-33.73,0,*6F
1486544822.72,58675,10.88,73104.8,-0.99,-32.97,-33.55,0,*66
1486544823.97,58676,10.88,73106.0,-0.97,-33.31,-33.83,0,*6D
1486544825.22,58677,10.88,73104.5,-0.99,-32.97,-33.61,0,*63
1486544826.44,58678,10.88,73100.8,-0.99,-32.97,-33.55,0,*6B
1486544827.66,58679,10.81,73102.3,-0.99,-33.43,-33.95,0,*6E
1486544828.95,58680,10.88,73108.3,-1.01,-33.43,-33.89,0,*55
1486544830.23,58681,10.88,73104.5,-1.01,-33.73,-34.31,0,*53
1486544831.48,58682,10.88,73100.5,-1.01,-33.61,-34.13,0,*53
1486544832.74,58683,10.88,73104.5,-1.01,-33.77,-34.41,0,*52
1486544834.0,58684,10.81,73102.5,-1.01,-33.03,-33.73,0,*50
1486544835.28,58685,10.88,73104.3,-1.01,-32.45,-32.85,0,*5A
1486544836.48,58686,10.81,73102.8,-0.99,-32.51,-33.15,0,*64
1486544837.68,58687,10.88,73106.5,-0.99,-33.03,-33.55,0,*67
1486544838.91,58688,10.88,73104.0,-0.99,-33.43,-33.95,0,*60
1486544840.12,58689,10.81,73102.8,-0.99,-33.61,-34.25,0,*6D
1486544841.36,58690,10.88,73104.0,-1.01,-33.37,-33.95,0,*5A
1486544842.62,58691,10.88,73106.0,-1.01,-33.37,-33.89,0,*56
1486544843.85,58692,10.88,73102.8,-1.03,-33.43,-33.95,0,*59
1486544845.11,58693,10.88,73104.0,-1.03,-33.49,-34.01,0,*58
1486544846.35,58694,10.88,73106.3,-1.03,-33.49,-34.13,0,*5C
1486544847.61,58695,10.88,73108.0,-1.03,-33.43,-34.01,0,*54
1486544848.86,58696,10.88,73108.3,-1.01,-33.89,-34.41,0,*57
1486544850.11,58697,10.88,73104.5,-1.05,-33.83,-34.35,0,*5B
1486544851.36,58698,10.88,73106.3,-1.03,-33.61,-34.19,0,*50
1486544852.62,58699,10.88,73104.5,-1.03,-33.49,-34.01,0,*52
1486544853.85,58700,10.88,73106.3,-1.03,-33.61,-33.95,0,*53
1486544855.08,58701,10.88,73106.3,-1.03,-32.91,-33.61,0,*57
1486544856.34,58702,10.81,73100.0,-1.03,-32.85,-33.31,0,*54
1486544857.57,58703,10.88,73104.3,-1.03,-33.21,-33.77,0,*58
1486544858.8,58704,10.88,73104.0,-1.03,-33.95,-34.53,0,*51
1486544860.06,58705,10.88,73104.5,-1.03,-33.77,-34.31,0,*58
1486544861.31,58706,10.88,73102.8,-1.05,-33.61,-34.13,0,*5A
1486544862.54,58707,10.88,73106.3,-1.07,-33.83,-34.35,0,*51
1486544863.83,58708,10.88,73106.5,-1.05,-33.49,-34.01,0,*5D
1486544865.06,58709,10.88,73102.8,-1.07,-33.49,-34.25,0,*58
1486544866.32,58710,10.81,73100.0,-1.07,-33.73,-34.35,0,*58
1486544867.56,58711,10.88,73104.8,-1.07,-33.49,-34.07,0,*51
1486544868.82,58712,10.88,73102.0,-1.07,-33.09,-33.73,0,*52
1486544870.07,58713,10.88,73106.0,-1.07,-33.37,-34.01,0,*5C
1486544871.32,58714,10.88,73106.0,-1.05,-33.27,-33.83,0,*55
1486544872.57,58715,10.88,73106.0,-1.05,-33.61,-34.13,0,*58
1486544873.84,58716,10.88,73102.5,-1.07,-34.01,-34.53,0,*5C
1486544875.05,58717,10.88,73106.0,-1.07,-33.55,-34.07,0,*5A
1486544876.3,58718,10.88,73104.5,-1.11,-33.49,-34.19,0,*50
1486544877.54,58719,10.88,73104.0,-1.11,-33.37,-34.01,0,*51
1486544878.77,58720,10.88,73102.0,-1.11,-33.83,-34.35,0,*53
1486544880.03,58721,10.88,73106.8,-1.11,-33.73,-34.35,0,*5D
1486544881.26,58722,10.88,73104.8,-1.11,-33.55,-34.19,0,*54
1486544882.51,58723,10.88,73102.8,-1.13,-33.61,-34.13,0,*5A
1486544883.78,58724,10.88,73104.3,-1.11,-33.49,-34.01,0,*56
1486544885.01,58725,10.88,73104.3,-1.11,-33.49,-34.07,0,*51
1486544886.25,58726,10.88,73100.8,-1.11,-33.31,-33.67,0,*5C
1486544887.48,58727,10.88,73104.0,-1.11,-33.15,-33.73,0,*5E
1486544888.71,58728,10.88,73108.0,-1.11,-32.91,-33.31,0,*5A
1486544889.92,58729,10.88,73100.0,-1.11,-32.91,-33.37,0,*5D
1486544891.18,58730,10.88,73104.0,-1.11,-33.31,-33.89,0,*5B
1486544892.44,58731,10.88,73106.3,-1.11,-33.31,-33.73,0,*5F
1486544893.67,58732,10.88,73106.3,-1.11,-32.97,-33.55,0,*55
1486544894.9,58733,10.88,73108.8,-1.11,-32.91,-33.49,0,*5F
1486544896.13,58734,10.88,73106.0,-1.11,-33.37,-33.89,0,*59
1486544897.39,58735,10.88,73108.3,-1.11,-33.27,-33.73,0,*5C